Flag for France Weather past 2 weeks in Nantes, France

Now
52 °F

Passing clouds.


Feels Like: 48 °F
Forecast: 45 / 53 °F
Wind: 12 mph from West

Location: Nantes Airport

Current Time: Mar 1, 2015 at 6:35:56 AM

Latest Report: Mar 1, 2015 at 6:00 AM


Visibility: N/A

Pressure: 29.86 "Hg

Humidity: 94%

Dew point: 50 °F

Location of NantesLocation

Historic Weather in Nantes — Graph

°F

Nantes temperature yesterday

Maximum temperature yesterday: 54 °F (at 10:30 PM)
Minimum temperature yesterday: 43 °F (at 1:00 AM)
Average temperature yesterday: 48 °F

Past Weeks' High & Low Weather Summary

 TemperatureHumidityPressure
High55 °F (Feb 25, 2:00 PM)100% (Feb 14, 8:00 AM)30.77 "Hg (Feb 14, 8:00 AM)
Low28 °F (Feb 18, 6:00 AM)50% (Feb 17, 4:30 PM)29.56 "Hg (Feb 23, 3:30 AM)
Average45 °F85%30.05 "Hg
* Reported Feb 14 5:00 AM — Mar 1 5:30 AM, Nantes, Weather by CustomWeather, © 2015

Note: Actual official high and low records may vary slightly from our data, if they occured in-between our weather recording intervals... More about our weather records

Advertising

Nantes weather history for previous 24 hours

 ConditionsComfort  
Time TempWeatherWind HumidityBarometerVisibility
5:30 AM
Sun, Mar 1
54 °FDrizzle. Low clouds.12 mph94%29.86 "Hg3 mi
5:00 AM54 °FLow clouds.14 mph94%29.86 "Hg3 mi
4:30 AM52 °FDrizzle. Fog.12 mph100%29.83 "Hg2 mi
4:00 AM52 °FDrizzle. Fog.12 mph100%29.83 "Hg2 mi
3:30 AM54 °FLow clouds.15 mph94%29.86 "HgN/A
3:00 AM54 °FDrizzle. Low clouds.14 mph94%29.86 "Hg4 mi
2:30 AM54 °FLow clouds.15 mph94%29.86 "HgN/A
2:00 AM54 °FLow clouds.15 mph94%29.86 "Hg3 mi
1:30 AM54 °FLight rain. Low clouds.15 mph94%29.86 "Hg3 mi
1:00 AM54 °FLight rain. Low clouds.14 mph94%29.86 "Hg3 mi
12:30 AM54 °FLight rain. Low clouds.14 mph94%29.86 "Hg2 mi
12:00 AM54 °FLight rain. Low clouds.17 mph94%29.86 "Hg3 mi
11:30 PM
Sat, Feb 28
54 °FLow clouds.15 mph94%29.86 "HgN/A
11:00 PM54 °FLight rain. Passing clouds.16 mph94%29.86 "Hg4 mi
10:30 PM54 °FLight rain. Passing clouds.16 mph94%29.86 "HgN/A
9:00 PM50 °FLight rain. Low clouds.12 mph100%29.89 "Hg4 mi
8:30 PM50 °FLight rain. Low clouds.12 mph100%29.89 "Hg4 mi
8:00 PM50 °FLight rain. Low clouds.12 mph94%29.92 "Hg2 mi
7:30 PM50 °FLight rain. Low clouds.9 mph94%29.92 "Hg3 mi
7:00 PM50 °FPassing clouds.8 mph94%29.95 "HgN/A
6:30 PM50 °FBroken clouds.9 mph94%29.95 "HgN/A
6:00 PM52 °FPartly sunny.15 mph94%29.95 "Hg6 mi
5:30 PM52 °FPartly sunny.13 mph94%29.95 "Hg5 mi
5:00 PM52 °FPartly sunny.12 mph100%29.95 "HgN/A
4:30 PM52 °FDrizzle. Partly sunny.9 mph100%29.92 "Hg2 mi
4:00 PM52 °FDrizzle. Low clouds.8 mph100%29.95 "Hg1 mi
3:30 PM50 °FDrizzle. Low clouds.12 mph100%29.95 "Hg2 mi
3:00 PM50 °FDrizzle. Low clouds.13 mph100%29.95 "Hg2 mi
2:30 PM50 °FDrizzle. Low clouds.15 mph94%29.98 "Hg2 mi
2:00 PM50 °FDrizzle. Low clouds.20 mph94%29.98 "Hg5 mi
1:00 PM50 °FDrizzle. Low clouds.16 mph94%30.01 "Hg4 mi
12:30 PM48 °FDrizzle. Low clouds.15 mph100%30.01 "Hg2 mi
12:00 PM48 °FDrizzle. Low clouds.14 mph94%30.04 "Hg2 mi
11:30 AM48 °FDrizzle. Low clouds.15 mph94%30.04 "Hg2 mi
11:00 AM48 °FDrizzle. Low clouds.17 mph94%30.04 "Hg2 mi
10:30 AM48 °FDrizzle. Low clouds.14 mph94%30.04 "Hg2 mi
10:00 AM46 °FDrizzle. Low clouds.13 mph93%30.04 "Hg2 mi
9:30 AM46 °FDrizzle. Low clouds.14 mph93%30.04 "Hg5 mi
9:00 AM46 °FDrizzle. Low clouds.13 mph93%30.04 "Hg4 mi
8:30 AM46 °FDrizzle. Low clouds.13 mph93%30.07 "Hg2 mi
8:00 AM45 °FDrizzle. Partly sunny.12 mph100%30.07 "Hg2 mi
7:30 AM45 °FPassing clouds.12 mph93%30.07 "HgN/A
7:00 AM45 °FPassing clouds.12 mph93%30.07 "HgN/A
6:30 AM45 °FPassing clouds.13 mph93%30.07 "HgN/A
6:00 AM46 °FPassing clouds.14 mph82%30.09 "HgN/A
Weather by CustomWeather, © 2015

See weather overviewHow to use our weather pages